4XCGL GMMN-GMMN

Flight info

Callsign 4XCGL
Flight time 0h 19m
Altitude 2500
Route ILS TRAINING
Aircraft A36/L-SDFGIRY/L

Departure

Time 2026-05-07 18:09
Airport Mohammed V International Airport (GMMN)

Arrival

Time 2026-05-07 18:29
Airport Mohammed V International Airport (GMMN)
Time Latitude Longitude Altitude Speed Heading
2026-05-07 17:46 33.35811 -7.56906 647 ft 0 kts 23°
2026-05-07 17:54 33.35819 -7.56902 647 ft 9 kts 19°
2026-05-07 17:54 33.35851 -7.56951 647 ft 13 kts 249°
2026-05-07 17:55 33.35813 -7.57096 647 ft 23 kts 253°
2026-05-07 17:55 33.35766 -7.57290 647 ft 23 kts 256°
2026-05-07 17:56 33.35671 -7.57693 647 ft 0 kts 249°
2026-05-07 17:56 33.35666 -7.57708 647 ft 6 kts 249°
2026-05-07 17:56 33.35644 -7.57796 647 ft 15 kts 253°
2026-05-07 17:57 33.35609 -7.57940 647 ft 18 kts 254°
2026-05-07 17:57 33.35591 -7.58014 647 ft 1 kts 254°
2026-05-07 17:57 33.35591 -7.58016 647 ft 0 kts 253°
2026-05-07 18:00 33.35579 -7.58062 647 ft 12 kts 250°
2026-05-07 18:00 33.35568 -7.58104 646 ft 0 kts 248°
2026-05-07 18:02 33.35548 -7.58188 645 ft 0 kts 254°
2026-05-07 18:06 33.35529 -7.58263 643 ft 18 kts 252°
2026-05-07 18:06 33.35566 -7.58381 641 ft 15 kts 338°
2026-05-07 18:07 33.35579 -7.58386 641 ft 0 kts 343°
2026-05-07 18:08 33.35610 -7.58397 640 ft 28 kts 343°
2026-05-07 18:08 33.36028 -7.58542 654 ft 86 kts 343°
2026-05-07 18:09 33.36668 -7.58774 826 ft 105 kts 342°
2026-05-07 18:09 33.37378 -7.59063 1194 ft 110 kts 342°
2026-05-07 18:09 33.38088 -7.59361 1580 ft 114 kts 343°
2026-05-07 18:09 33.38843 -7.59678 1947 ft 114 kts 344°
2026-05-07 18:10 33.39596 -7.59979 2328 ft 114 kts 343°
2026-05-07 18:10 33.40350 -7.60267 2679 ft 113 kts 344°
2026-05-07 18:10 33.41093 -7.60537 3039 ft 111 kts 344°
2026-05-07 18:10 33.41805 -7.60874 3376 ft 112 kts 319°
2026-05-07 18:11 33.41987 -7.61769 3682 ft 120 kts 263°
2026-05-07 18:11 33.41882 -7.62415 3905 ft 119 kts 265°
2026-05-07 18:11 33.41722 -7.63830 4011 ft 138 kts 265°
2026-05-07 18:11 33.41594 -7.65008 4013 ft 146 kts 265°
2026-05-07 18:12 33.41457 -7.66231 4007 ft 151 kts 264°
2026-05-07 18:12 33.41242 -7.67478 4011 ft 155 kts 259°
2026-05-07 18:12 33.40977 -7.68738 4001 ft 159 kts 249°
2026-05-07 18:12 33.40162 -7.69629 4001 ft 167 kts 200°
2026-05-07 18:13 33.38999 -7.69652 4007 ft 170 kts 173°
2026-05-07 18:13 33.37832 -7.69449 4010 ft 169 kts 174°
2026-05-07 18:13 33.36663 -7.69250 4010 ft 169 kts 173°
2026-05-07 18:13 33.35496 -7.69051 4010 ft 169 kts 173°
2026-05-07 18:14 33.34331 -7.68858 4007 ft 169 kts 173°
2026-05-07 18:14 33.33175 -7.68668 4006 ft 170 kts 173°
2026-05-07 18:14 33.31998 -7.68484 4007 ft 171 kts 173°
2026-05-07 18:14 33.30801 -7.68299 4008 ft 171 kts 173°
2026-05-07 18:15 33.29617 -7.68121 4009 ft 172 kts 173°
2026-05-07 18:15 33.28445 -7.67945 4009 ft 172 kts 173°
2026-05-07 18:15 33.27242 -7.67769 4009 ft 172 kts 173°
2026-05-07 18:15 33.26072 -7.67601 4005 ft 172 kts 173°
2026-05-07 18:16 33.24882 -7.67426 4007 ft 173 kts 173°
2026-05-07 18:16 33.23713 -7.67256 4003 ft 165 kts 173°
2026-05-07 18:16 33.22579 -7.67096 3998 ft 160 kts 173°
2026-05-07 18:16 33.21493 -7.66946 3991 ft 153 kts 173°
2026-05-07 18:17 33.20454 -7.66813 3990 ft 149 kts 173°
2026-05-07 18:17 33.19427 -7.66680 3989 ft 147 kts 173°
2026-05-07 18:17 33.18420 -7.66547 3995 ft 146 kts 173°
2026-05-07 18:17 33.17406 -7.66418 3990 ft 146 kts 173°
2026-05-07 18:18 33.16402 -7.66291 3997 ft 145 kts 173°
2026-05-07 18:18 33.15392 -7.66162 3992 ft 147 kts 173°
2026-05-07 18:18 33.14378 -7.66034 3992 ft 146 kts 173°
2026-05-07 18:18 33.13368 -7.65911 3989 ft 146 kts 173°
2026-05-07 18:19 33.12387 -7.65744 3984 ft 143 kts 157°
2026-05-07 18:19 33.11751 -7.64912 3990 ft 135 kts 104°
2026-05-07 18:19 33.11474 -7.63844 3996 ft 136 kts 104°
2026-05-07 18:19 33.11177 -7.62780 3999 ft 135 kts 104°
2026-05-07 18:20 33.10893 -7.61714 3999 ft 135 kts 103°
2026-05-07 18:20 33.10619 -7.60641 3999 ft 134 kts 100°
2026-05-07 18:20 33.10647 -7.59561 4004 ft 132 kts 75°
2026-05-07 18:20 33.10831 -7.58441 4010 ft 143 kts 75°
2026-05-07 18:21 33.11019 -7.57227 4007 ft 153 kts 77°
2026-05-07 18:21 33.11212 -7.55962 4006 ft 157 kts 76°
2026-05-07 18:21 33.11706 -7.54883 4007 ft 152 kts 35°
2026-05-07 18:21 33.12674 -7.54397 4008 ft 152 kts 14°
2026-05-07 18:22 33.13693 -7.54075 4005 ft 151 kts 15°
2026-05-07 18:22 33.14374 -7.53835 4008 ft 151 kts 15°
2026-05-07 18:22 33.15711 -7.53374 4013 ft 151 kts 16°
2026-05-07 18:22 33.16723 -7.53026 4009 ft 151 kts 15°
2026-05-07 18:23 33.17762 -7.52892 4011 ft 151 kts 358°
2026-05-07 18:23 33.18801 -7.53130 3958 ft 153 kts 348°
2026-05-07 18:23 33.19824 -7.53436 3774 ft 152 kts 346°
2026-05-07 18:23 33.20843 -7.53763 3574 ft 151 kts 347°
2026-05-07 18:24 33.21845 -7.54105 3378 ft 149 kts 345°
2026-05-07 18:24 33.22843 -7.54451 3174 ft 150 kts 345°
2026-05-07 18:24 33.23851 -7.54795 2975 ft 151 kts 345°
2026-05-07 18:24 33.24866 -7.55142 2771 ft 152 kts 346°
2026-05-07 18:25 33.25880 -7.55490 2566 ft 150 kts 346°
2026-05-07 18:25 33.26885 -7.55835 2366 ft 150 kts 346°
2026-05-07 18:25 33.27897 -7.56183 2161 ft 153 kts 347°
2026-05-07 18:25 33.28916 -7.56532 1957 ft 148 kts 347°
2026-05-07 18:26 33.29831 -7.56846 1767 ft 123 kts 346°
2026-05-07 18:26 33.30571 -7.57100 1611 ft 96 kts 347°
2026-05-07 18:26 33.31153 -7.57296 1480 ft 78 kts 347°
2026-05-07 18:26 33.31643 -7.57465 1384 ft 70 kts 345°
2026-05-07 18:27 33.32111 -7.57626 1299 ft 71 kts 346°
2026-05-07 18:27 33.32580 -7.57785 1199 ft 67 kts 345°
2026-05-07 18:27 33.33001 -7.57935 1111 ft 60 kts 345°
2026-05-07 18:27 33.33270 -7.58019 1067 ft 61 kts 346°
2026-05-07 18:28 33.33840 -7.58217 958 ft 65 kts 346°
2026-05-07 18:28 33.34268 -7.58367 869 ft 62 kts 344°
2026-05-07 18:28 33.34686 -7.58515 774 ft 63 kts 346°
2026-05-07 18:28 33.35101 -7.58652 676 ft 61 kts 346°
2026-05-07 18:29 33.35474 -7.58778 645 ft 45 kts 342°
2026-05-07 18:29 33.35736 -7.58867 645 ft 42 kts 345°
2026-05-07 18:29 33.36062 -7.58977 645 ft 54 kts 344°
2026-05-07 18:29 33.36376 -7.59076 646 ft 33 kts 353°
2026-05-07 18:30 33.36593 -7.59054 646 ft 31 kts 14°
2026-05-07 18:30 33.36751 -7.59004 647 ft 12 kts 34°
2026-05-07 18:30 33.36784 -7.58915 646 ft 15 kts 73°
2026-05-07 18:30 33.36820 -7.58762 646 ft 22 kts 73°
2026-05-07 18:31 33.36861 -7.58602 647 ft 18 kts 73°
2026-05-07 18:31 33.36877 -7.58526 647 ft 0 kts 75°
2026-05-07 18:33 33.36853 -7.58465 647 ft 17 kts 151°
2026-05-07 18:33 33.36694 -7.58410 647 ft 29 kts 164°
2026-05-07 18:33 33.36472 -7.58333 647 ft 37 kts 165°
2026-05-07 18:33 33.36260 -7.58251 647 ft 20 kts 133°
2026-05-07 18:34 33.36265 -7.58121 647 ft 18 kts 102°
2026-05-07 18:34 33.36161 -7.58050 647 ft 19 kts 163°
2026-05-07 18:34 33.36012 -7.57999 647 ft 24 kts 163°
2026-05-07 18:34 33.35839 -7.57945 647 ft 27 kts 167°
2026-05-07 18:35 33.35659 -7.57886 647 ft 24 kts 155°
2026-05-07 18:35 33.35650 -7.57774 647 ft 17 kts 71°
2026-05-07 18:35 33.35691 -7.57612 647 ft 23 kts 73°
2026-05-07 18:35 33.35740 -7.57407 647 ft 27 kts 74°
2026-05-07 18:36 33.35759 -7.57227 647 ft 14 kts 145°
2026-05-07 18:36 33.35720 -7.57211 647 ft 0 kts 162°